• Join FlightAware (Why Join?)
  • Login
  • US Flag 
07:02PM EDT


 

Airport Tracker/Info


-or-


 

Live Flight TrackerFlight Track Log ✈ N400PU ✈ 24-Sep-2013 ✈ KLAF - KIAD

Flight Track Log - Related Links

Times and Time Zones

All times are in EDT time to prevent confusion due to time zone crossing. See the N400PU flight status page for this flight to view local times or setup timezone preferences in your user account.

Time Position Orientation Groundspeed Altitude Reporting Facility
EDT Latitude Longitude Course Direction KTS MPH feet Rate Location/Type
06:56AM 40.4053 -86.8644 98° East 192 221 3,000  Level Indianapolis Center
06:57AM 40.3936 -86.7603 98° East 238 274 5,800 2,400 Climbing Indianapolis Center
06:58AM 40.3839 -86.6667 98° East 247 284 7,900 2,160 Climbing Indianapolis Center
06:59AM 40.2830 -85.8235 98° East  Level Estimated
06:59AM 40.3722 -86.5669 99° East 262 302 10,200  Level Indianapolis Center
07:00AM 40.2704 -85.6996 98° East  Level FlightAware Approximate
07:00AM 40.3639 -86.4836 97° East 286 329 12,100  Level Chicago Center
07:01AM 40.2576 -85.5758 98° East  Level FlightAware Approximate
07:01AM 40.3506 -86.3572 98° East 292 336 14,800  Level Chicago Center
07:02AM 40.3378 -86.2497 99° East 297 342 16,900 1,920 Climbing Chicago Center
07:03AM 40.3250 -86.1375 98° East 308 354 18,700 1,740 Climbing Chicago Center
07:04AM 40.3206 -86.0208 93° East 322 371 20,500 1,620 Climbing Chicago Center
07:05AM 40.3228 -85.8986 89° East 334 384 22,000 1,440 Climbing Chicago Center
07:06AM 40.3242 -85.7731 89° East 342 394 23,600 1,500 Climbing Indianapolis Center
07:07AM 40.3208 -85.6464 92° East 347 399 25,200 1,560 Climbing Indianapolis Center
07:08AM 40.3058 -85.5178 99° East 355 409 26,800 1,440 Climbing Indianapolis Center
07:09AM 40.2928 -85.3892 98° East 357 411 28,200 1,260 Climbing Indianapolis Center
07:10AM 40.2781 -85.2589 98° East 361 415 29,400 1,140 Climbing Indianapolis Center
07:11AM 40.2592 -85.0969 99° East 376 433 30,600 1,080 Climbing Indianapolis Center
07:12AM 40.2456 -84.9589 97° East 383 441 31,700 1,020 Climbing Indianapolis Center
07:13AM 40.2300 -84.8222 98° East 390 449 32,700 900 Climbing Indianapolis Center
07:15AM 40.1994 -84.5675 99° East 398 458 34,300 840 Climbing Cleveland Center
07:16AM 40.1844 -84.4181 97° East 412 474 35,100 720 Climbing Cleveland Center
07:17AM 40.1656 -84.2694 99° East 415 478 35,800 720 Climbing Cleveland Center
07:18AM 40.1483 -84.1189 98° East 419 482 36,600 540 Climbing Cleveland Center
07:19AM 40.1306 -83.9686 99° East 418 481 37,000 180 Climbing Cleveland Center
07:20AM 40.1069 -83.7933 100° East 434 499 37,000  Level Chicago Center
07:22AM 40.0831 -83.5794 98° East 455 524 37,000  Level Indianapolis Center
07:23AM 40.0614 -83.4061 99° East 471 542 37,000  Level Indianapolis Center
07:24AM 40.0383 -83.2314 100° East 480 552 37,000  Level Indianapolis Center
07:25AM 40.0158 -83.0586 100° East 481 554 37,000  Level Indianapolis Center
07:26AM 39.9933 -82.8878 100° East 477 549 37,000  Level Indianapolis Center
07:27AM 39.9711 -82.7183 100° East 474 545 37,000  Level Indianapolis Center
07:28AM 39.9483 -82.5461 100° East 481 554 37,000  Level Indianapolis Center
07:29AM 39.9250 -82.3761 100° East 478 550 37,000  Level Indianapolis Center
07:30AM 39.9022 -82.2047 100° East 480 552 37,000  Level Indianapolis Center
07:31AM 39.8783 -82.0342 100° East 481 554 37,000  Level Indianapolis Center
07:32AM 39.8542 -81.8611 100° East 484 557 37,000  Level Indianapolis Center
07:33AM 39.8294 -81.6903 101° East 483 556 37,000  Level Indianapolis Center
07:34AM 39.8000 -81.4858 101° East 481 554 37,000  Level Indianapolis Center
07:35AM 39.7739 -81.3125 101° East 481 554 37,000  Level Indianapolis Center
07:36AM 39.7478 -81.1397 101° East 484 557 37,000  Level Indianapolis Center
07:37AM 39.7211 -80.9686 101° East 481 554 37,000  Level Indianapolis Center
07:38AM 39.6956 -80.7969 101° East 481 554 37,000  Level Indianapolis Center
07:39AM 39.6569 -80.5567 102° East 483 556 37,000  Level Indianapolis Center
07:40AM 39.6489 -80.4886 99° East 475 547 37,000  Level Cleveland Center
07:41AM 39.6200 -80.3169 102° East 486 559 37,000  Level Cleveland Center
07:41AM 39.6031 -80.2122 102° East 486 559 37,000 -720 Level Indianapolis Center
07:42AM 39.5881 -80.1111 101° East 488 562 36,300 -2,100 Descending Cleveland Center
07:43AM 39.5622 -79.9444 101° East 479 551 33,700 -2,460 Descending Washington Center
07:44AM 39.5347 -79.7758 102° East 474 545 31,200 -2,520 Descending Washington Center
07:45AM 39.5069 -79.6128 102° East 469 540 28,700 -2,340 Descending Washington Center
07:46AM 39.4828 -79.4583 101° East 452 520 26,600 -1,500 Descending Washington Center
07:47AM 39.4586 -79.3064 102° East 440 506 25,800 -1,020 Descending Washington Center
07:48AM 39.4261 -79.1381 104° East 440 506 24,600 -1,680 Descending Washington Center
07:49AM 39.3989 -78.9944 104° East 433 498 22,400 -2,040 Descending Washington Center
07:50AM 39.3756 -78.8592 103° East 409 471 20,500 -2,160 Descending Washington Center
07:51AM 39.3522 -78.7211 102° East 391 450 18,200 -2,100 Descending Washington Center
07:52AM 39.3283 -78.5914 103° East 376 433 16,400 -1,740 Descending Washington Center
07:53AM 39.3042 -78.4669 104° East 371 427 14,700 -1,740 Descending Washington Center
07:54AM 39.2547 -78.3578 120° Southeast 349 402 13,000 -1,740 Descending Washington Center
07:55AM 39.1731 -78.2878 146° Southeast 335 386 11,200 -1,860 Descending Washington Center
07:56AM 39.0992 -78.2261 147° Southeast 336 387 9,400 -1,920 Descending Washington Center
07:57AM 39.0297 -78.1703 148° Southeast 316 364 7,400 -1,200 Descending Washington Center
07:58AM 38.9642 -78.1144 146° Southeast 295 339 7,000 -840 Descending Washington Center
07:59AM 38.8986 -78.0589 147° Southeast 288 331 5,800 -1,080 Descending Washington Center
08:00AM 38.8328 -78.0086 149° Southeast 283 326 5,000 -420 Descending Washington Center
08:01AM 38.7672 -77.9586 149° Southeast 283 326 5,000 -120 Level Washington Center
08:03AM 38.7167 -77.8167 114° Southeast 269 310 4,700 -600 Descending Potomac TRACON
08:04AM 38.7500 -77.7333 63° Northeast 272 313 3,400 -960 Descending Potomac TRACON
08:05AM 38.7667 -77.6667 72° East 239 275 3,000 -360 Descending Potomac TRACON
08:06AM 38.8000 -77.6000 57° Northeast 190 219 2,800 -360 Descending Potomac TRACON
08:07AM 38.8167 -77.5333 72° East 174 200 2,300 -300 Descending Potomac TRACON
08:08AM 38.8333 -77.4833 67° East 153 176 2,200 -360 Descending Potomac TRACON
08:09AM 38.8667 -77.4667 21° North 139 160 1,700 -600 Descending Potomac TRACON
08:10AM 38.9000 -77.4667 360° North 124 143 1,100 -600 Descending Potomac TRACON
08:12AM 38.9474 -77.4599 North  Level Estimated